Roswell, NM

8:11 AM MDT on August 20, 2017 (GMT -0600)
Roswell Industrial

Weather History for KROW - May, 2013

Change the Weather History Date:

Monday, May 20, 2013

  Actual Average Record
Temperature  
Mean Temperature 73 °F 71 °F  
Max Temperature 92 °F 87 °F 101 °F (2006)
Min Temperature 54 °F 56 °F 44 °F (1968)
Degree Days  
Heating Degree Days 0 1  
Month to date heating degree days 51 27  
Since 1 July heating degree days 2984 3285  
Cooling Degree Days 8 7  
Month to date cooling degree days 92 93  
Year to date cooling degree days 158 133  
Growing Degree Days 22 (Base 50)    
Moisture  
Dew Point 22 °F    
Average Humidity 19    
Maximum Humidity 32    
Minimum Humidity 6    
Precipitation  
Precipitation 0.00 in 0.04 in 0.77 in (1951)
Month to date precipitation 0.03 0.79  
Year to date precipitation 0.47 2.71  
Sea Level Pressure  
Sea Level Pressure 29.64 in    
Wind  
Wind Speed 7 mph (North)    
Max Wind Speed 14 mph    
Max Gust Speed 30 mph    
Visibility 10 miles    
Events      
T = Trace of Precipitation, MM = Missing Value Source: NWS Daily Summary

Daily Weather History Graph

Daily Weather History Graph

Search for Another Location

Airport or City:

Trip Planner

Search our weather history database for the weather conditions in past years. The results will help you decide how hot, cold, wet, or windy it might be!

Date:

Astronomy

May. 20, 2013 Rise Set
Actual Time 5:54 AM MDT 7:54 PM MDT
Civil Twilight 5:27 AM MDT 8:22 PM MDT
Nautical Twilight 4:53 AM MDT 8:56 PM MDT
Astronomical Twilight 4:17 AM MDT 9:32 PM MDT
Moon 3:18 PM MDT 2:36 AM MDT
Length of Visible Light 14h 55m
Length of Day
14h 00m
Waxing Gibbous, 75% of the Moon is Illuminated
May 20
Waxing Gibbous
May 24
Full
May 31
Last Quarter
Jun 8
New
Jun 16
First Quarter

Hourly Weather History & Observations

Time (MDT) Temp. Dew Point Humidity Pressure Visibility Wind Dir Wind Speed Gust Speed Precip Events Conditions
12:51 AM 68.0 °F 23.0 °F 18% 29.64 in 10.0 mi WNW 13.8 mph - N/A   Clear
1:51 AM 64.9 °F 24.1 °F 21% 29.64 in 10.0 mi NW 9.2 mph - N/A   Clear
2:51 AM 64.0 °F 23.0 °F 21% 29.65 in 10.0 mi WNW 8.1 mph - N/A   Clear
3:51 AM 62.1 °F 23.0 °F 22% 29.66 in 10.0 mi NW 10.4 mph - N/A   Clear
4:51 AM 60.1 °F 24.1 °F 25% 29.68 in 10.0 mi North 5.8 mph - N/A   Clear
5:51 AM 54.0 °F 25.0 °F 33% 29.71 in 10.0 mi NNE 5.8 mph - N/A   Clear
6:51 AM 64.9 °F 30.9 °F 28% 29.72 in 10.0 mi NNW 12.7 mph - N/A   Clear
7:51 AM 68.0 °F 32.0 °F 26% 29.73 in 10.0 mi NNW 12.7 mph - N/A   Clear
8:51 AM 71.1 °F 30.0 °F 22% 29.74 in 10.0 mi NW 6.9 mph - N/A   Clear
9:51 AM 77.0 °F 27.0 °F 16% 29.71 in 10.0 mi Variable 3.5 mph - N/A   Clear
10:51 AM 79.0 °F 27.0 °F 15% 29.70 in 10.0 mi SW 3.5 mph - N/A   Clear
12:51 PM 86.0 °F 21.0 °F 9% 29.64 in 10.0 mi Variable 4.6 mph - N/A   Clear
1:51 PM 88.0 °F 26.1 °F 11% 29.62 in 10.0 mi SE 8.1 mph - N/A   Clear
3:51 PM 91.9 °F 16.0 °F 6% 29.57 in 10.0 mi Variable 5.8 mph - N/A   Clear
4:51 PM 90.0 °F 15.1 °F 6% 29.55 in 10.0 mi Calm Calm - N/A   Clear
5:51 PM 89.1 °F 17.1 °F 7% 29.55 in 10.0 mi East 6.9 mph - N/A   Clear
6:51 PM 88.0 °F 17.1 °F 7% 29.51 in 10.0 mi ENE 9.2 mph - N/A   Clear
7:51 PM 82.9 °F 23.0 °F 11% 29.53 in 10.0 mi ENE 5.8 mph - N/A   Clear
8:51 PM 82.9 °F 18.0 °F 9% 29.55 in 10.0 mi Variable 4.6 mph - N/A   Clear
9:51 PM 81.0 °F 10.9 °F 7% 29.59 in 10.0 mi NE 9.2 mph - N/A   Clear
10:51 PM 77.0 °F 14.0 °F 9% 29.64 in 10.0 mi North 11.5 mph - N/A   Clear
11:51 PM 75.0 °F 21.0 °F 13% 29.66 in 8.0 mi NNW 20.7 mph 29.9 mph N/A   Clear